Location: Monrovia
(34.7865°N, 86.7139°W)
Time: 00:49:11
(UTC+00:00)

Abrixas rocket - Pass Details

Date: 14 July 2020
Orbit: 338 x 346 km, 48.4° (Epoch: 12 August)

Event Time Altitude Azimuth Distance (km) Brightness Sun altitude
Rises 09:13:45 0° 317° (NW) 2,118 5.8 -16.2°
Reaches altitude 10° 09:15:58 10° 331° (NNW) 1,278 4.8 -15.8°
Maximum altitude 09:18:24 25° 30° (NNE) 732 4.3 -15.5°
Drops below altitude 10° 09:20:50 10° 89° (E) 1,274 5.4 -15.1°
Sets 09:23:02 0° 103° (ESE) 2,110 6.4 -14.7°
